FW7308 Weather Reports


time (UTC)temp
C
wind
direction
speed
KPH
gust
KPH
rain 1hr
cm
rain 24hr
cm
rain mn
cm
humidity
%
barometer
mb
20260508220130 8 325 3.2 9.7 0.00 0.00 0.00 68 1011.9
20260508215629 8 326 3.2 4.8 0.00 0.00 0.00 67 1012.1
20260508215129 8 330 11.3 14.5 0.00 0.00 0.00 68 1011.9
20260508214627 8 313 6.4 9.7 0.00 0.00 0.00 67 1012.3
20260508213127 7 349 1.6 3.2 0.00 0.00 0.00 77 1011.9
20260508212626 7 312 1.6 3.2 0.00 0.00 0.00 79 1012.3
20260508212125 7 313 1.6 4.8 0.00 0.00 0.00 76 1012.3
20260508211626 7 297 6.4 8.0 0.00 0.00 0.00 72 1012.3
20260508210124 8 306 8.0 14.5 0.00 0.00 0.00 63 1011.9
20260508205627 8 356 14.5 20.9 0.00 0.00 0.00 60 1011.6
20260508205124 9 296 4.8 8.0 0.00 0.00 0.00 56 1011.6
20260508204625 10 342 11.3 16.1 0.00 0.00 0.00 52 1011.6
20260508203623 11 332 4.8 8.0 0.00 0.00 0.00 49 1011.2
20260508202622 11 341 3.2 4.8 0.00 0.00 0.00 49 1011.2
20260508193622 12 325 6.4 9.7 0.00 0.00 0.00 45 1010.9
20260508193119 11 338 1.6 3.2 0.00 0.00 0.00 48 1010.5
20260508192620 11 306 4.8 9.7 0.00 0.00 0.00 48 1010.7
20260508192117 11 337 4.8 8.0 0.00 0.00 0.00 49 1010.9
20260508191617 11 316 4.8 9.7 0.00 0.00 0.00 47 1010.9
20260508191119 11 0 4.8 9.7 0.00 0.00 0.00 47 1010.9
20260508190617 11 338 3.2 3.2 0.00 0.00 0.00 45 1010.9
20260508185718 11 334 6.4 11.3 0.00 0.00 0.00 46 1010.9
20260508185117 11 329 3.2 3.2 0.00 0.00 0.00 46 1010.9
20260508184646 11 317 9.7 12.9 0.00 0.00 0.00 43 1010.9
20260508184245 11 284 8.0 12.9 0.00 0.00 0.00 44 1010.9
20260508183646 11 9 17.7 24.1 0.00 0.00 0.00 43 1010.7
20260508183145 11 342 8.0 12.9 0.00 0.00 0.00 43 1010.9
20260508182644 12 7 9.7 16.1 0.00 0.00 0.00 43 1010.9
20260508181643 13 55 3.2 9.7 0.00 0.00 0.00 43 1010.9
20260508180644 11 321 3.2 8.0 0.00 0.00 0.00 43 1010.9
20260508180243 11 338 1.6 3.2 0.00 0.00 0.00 44 1010.9
20260508174642 12 315 6.4 8.0 0.00 0.00 0.00 42 1010.9
20260508174141 12 321 8.0 12.9 0.00 0.00 0.00 42 1010.9
20260508173643 11 296 8.0 12.9 0.00 0.00 0.00 42 1010.9
20260508173140 12 65 4.8 8.0 0.00 0.00 0.00 42 1011.0
20260508172641 11 338 8.0 12.9 0.00 0.00 0.00 44 1011.2
20260508172140 11 349 8.0 14.5 0.00 0.00 0.00 44 1010.9
20260508171641 11 356 6.4 9.7 0.00 0.00 0.00 42 1011.4
20260508171141 11 335 11.3 12.9 0.00 0.00 0.00 43 1011.2
20260508170639 10 314 4.8 8.0 0.00 0.00 0.00 45 1011.2
20260508163637 10 313 3.2 4.8 0.00 0.00 0.00 45 1011.6
20260508163136 10 295 4.8 9.7 0.00 0.00 0.00 45 1011.6
20260508162737 10 323 4.8 9.7 0.00 0.00 0.00 47 1011.4
20260508162136 10 332 6.4 11.3 0.00 0.00 0.00 45 1011.2
20260508161135 10 1 4.8 8.0 0.00 0.00 0.00 45 1011.2
20260508160135 10 1 1.6 1.6 0.00 0.00 0.00 43 1011.2
20260508155634 10 337 4.8 8.0 0.00 0.00 0.00 44 1011.2
20260508155133 10 3 11.3 16.1 0.00 0.00 0.00 43 1011.2
20260508154632 10 7 12.9 27.4 0.00 0.00 0.00 42 1011.2
20260508154134 10 344 1.6 3.2 0.00 0.00 0.00 43 1011.2
20260508153633 11 321 6.4 11.3 0.00 0.00 0.00 42 1011.2
20260508153234 11 133 4.8 11.3 0.00 0.00 0.00 41 1011.2
20260508152632 11 336 1.6 3.2 0.00 0.00 0.00 43 1010.9
20260508152133 11 313 4.8 8.0 0.00 0.00 0.00 43 1010.9
20260508151633 11 10 8.0 12.9 0.00 0.00 0.00 42 1010.9
20260508151131 10 328 6.4 11.3 0.00 0.00 0.00 42 1010.9
20260508150630 10 356 8.0 14.5 0.00 0.00 0.00 43 1010.9
20260508140126 9 269 8.0 12.9 0.00 0.00 0.00 50 1011.2
20260508135627 8 1 11.3 16.1 0.00 0.00 0.00 52 1011.2
20260508135126 8 340 9.7 14.5 0.00 0.00 0.00 51 1011.4
20260508134625 10 355 14.5 22.5 0.00 0.00 0.00 50 1011.6
20260508133626 8 335 0.0 1.6 0.00 0.00 0.00 53 1011.6
20260508133126 8 327 3.2 4.8 0.00 0.00 0.00 54 1011.6
20260508132624 8 358 4.8 12.9 0.00 0.00 0.00 54 1011.6
20260508132123 7 14 4.8 8.0 0.00 0.00 0.00 55 1011.6
20260508131622 8 358 4.8 8.0 0.00 0.00 0.00 56 1011.6
20260508131124 7 343 3.2 4.8 0.00 0.00 0.00 58 1011.6
20260508130623 7 318 4.8 8.0 0.00 0.00 0.00 58 1011.7
20260508130122 7 316 6.4 11.3 0.00 0.00 0.00 59 1011.6
20260508125621 7 314 3.2 4.8 0.00 0.00 0.00 59 1011.6
20260508125120 7 312 6.4 12.9 0.00 0.00 0.00 60 1011.6
20260508124622 6 326 1.6 3.2 0.00 0.00 0.00 59 1011.6
20260508124121 6 353 3.2 8.0 0.00 0.00 0.00 59 1011.6
20260508123621 6 318 8.0 11.3 0.00 0.00 0.00 60 1011.6
20260508123121 6 340 3.2 3.2 0.00 0.00 0.00 60 1011.6
20260508122620 6 313 4.8 11.3 0.00 0.00 0.00 61 1011.6
20260508122122 6 328 6.4 12.9 0.00 0.00 0.00 60 1011.6
20260508121718 6 323 4.8 8.0 0.00 0.00 0.00 61 1011.4
20260508121122 6 315 4.8 8.0 0.00 0.00 0.00 60 1011.6
20260508120620 6 330 1.6 1.6 0.00 0.00 0.00 61 1011.6
20260508120118 7 321 8.0 11.3 0.00 0.00 0.00 59 1011.6
20260508115617 7 321 4.8 4.8 0.00 0.00 0.00 60 1011.6
20260508115118 7 14 4.8 12.9 0.00 0.00 0.00 62 1011.6
20260508114617 6 330 3.2 4.8 0.00 0.00 0.00 62 1011.6
20260508114117 6 341 1.6 3.2 0.00 0.00 0.00 61 1011.2
20260508113621 6 322 6.4 9.7 0.00 0.00 0.00 61 1011.2
20260508113217 7 12 8.0 14.5 0.00 0.00 0.00 60 1011.2
20260508112656 7 302 3.2 3.2 0.00 0.00 0.00 63 1011.2
20260508102143 3 330 1.6 1.6 0.00 0.00 0.00 69 1010.5
20260508101641 3 336 0.0 1.6 0.00 0.00 0.00 73 1010.5
20260508101140 4 327 0.0 1.6 0.00 0.00 0.00 70 1010.1
20260508100641 4 327 1.6 1.6 0.00 0.00 0.00 70 1010.3
20260508100140 4 0.0 0.0 0.00 0.00 0.00 71 1010.5
20260508095640 4 334 1.6 3.2 0.00 0.00 0.00 70 1010.1
20260508095138 3 329 1.6 1.6 0.00 0.00 0.00 71 1010.5
20260508094640 3 330 1.6 3.2 0.00 0.00 0.00 75 1010.3
20260508094139 3 337 1.6 1.6 0.00 0.00 0.00 75 1010.1
20260508093638 2 327 3.2 3.2 0.00 0.00 0.00 76 1010.1
20260508093137 2 335 1.6 1.6 0.00 0.00 0.00 77 1010.1
20260508092638 2 323 1.6 3.2 0.00 0.00 0.00 79 1010.1
20260508092138 2 331 1.6 1.6 0.00 0.00 0.00 80 1010.1
20260508091638 2 325 1.6 1.6 0.00 0.00 0.00 80 1010.1
20260508091136 1 336 1.6 1.6 0.00 0.00 0.00 83 1010.1
20260508090637 1 326 3.2 3.2 0.00 0.00 0.00 85 1010.1
20260508090137 1 335 1.6 1.6 0.00 0.00 0.00 82 1010.1
20260508085636 1 331 3.2 3.2 0.00 0.00 0.00 84 1010.1
20260508085137 1 323 3.2 3.2 0.00 0.00 0.00 83 1009.8
20260508084636 1 325 3.2 3.2 0.00 0.00 0.00 83 1010.0
20260508084135 1 321 3.2 3.2 0.00 0.00 0.00 81 1010.1
20260508083634 1 333 3.2 4.8 0.00 0.00 0.00 84 1010.1
20260508083135 1 324 3.2 3.2 0.00 0.00 0.00 85 1010.1
20260508082634 1 328 3.2 3.2 0.00 0.00 0.00 84 1010.1
20260508082133 1 324 4.8 4.8 0.00 0.00 0.00 84 1010.1
20260508081634 1 324 3.2 3.2 0.00 0.00 0.00 84 1010.1
20260508081134 0 324 4.8 4.8 0.00 0.00 0.00 84 1010.1
20260508080633 0 323 3.2 3.2 0.00 0.00 0.00 84 1010.1
20260508080132 1 327 4.8 4.8 0.00 0.00 0.00 84 1010.1
20260508075633 0 329 3.2 4.8 0.00 0.00 0.00 85 1010.1
20260508075132 0 326 3.2 3.2 0.00 0.00 0.00 85 1009.8
20260508074631 1 325 3.2 3.2 0.00 0.00 0.00 85 1009.8
20260508074130 1 325 3.2 3.2 0.00 0.00 0.00 85 1009.8
20260508073630 1 325 4.8 4.8 0.00 0.00 0.00 85 1009.8
20260508073131 1 323 3.2 4.8 0.00 0.00 0.00 84 1009.8
20260508072630 1 327 4.8 4.8 0.00 0.00 0.00 83 1009.8
20260508072129 1 323 3.2 3.2 0.00 0.00 0.00 85 1009.4
20260508071629 1 324 4.8 4.8 0.00 0.00 0.00 85 1009.6
20260508071130 1 324 4.8 4.8 0.00 0.00 0.00 85 1009.8
20260508070629 1 328 4.8 4.8 0.00 0.00 0.00 85 1009.8
20260508070128 1 325 4.8 4.8 0.00 0.00 0.00 84 1009.8
20260508065627 1 330 4.8 4.8 0.00 0.00 0.00 85 1009.8
20260508065127 1 326 4.8 4.8 0.00 0.00 0.00 85 1009.8
20260508064631 1 329 4.8 4.8 0.00 0.00 0.00 84 1009.8
20260508063626 1 326 4.8 4.8 0.00 0.00 0.00 83 1009.8
20260508063125 1 322 3.2 3.2 0.00 0.00 0.00 83 1009.8
20260508062627 1 331 4.8 4.8 0.00 0.00 0.00 84 1010.0
20260508062226 1 323 3.2 3.2 0.00 0.00 0.00 83 1009.8
20260508061725 1 328 4.8 4.8 0.00 0.00 0.00 84 1009.8
20260508061124 1 323 3.2 3.2 0.00 0.00 0.00 82 1009.8
20260508060628 1 327 3.2 3.2 0.00 0.00 0.00 82 1009.8
20260508060124 1 327 4.8 4.8 0.00 0.00 0.00 84 1009.8
20260508055625 1 323 3.2 3.2 0.00 0.00 0.00 84 1009.8
20260508055123 1 326 4.8 4.8 0.00 0.00 0.00 85 1010.0
20260508054123 1 331 4.8 4.8 0.00 0.00 0.00 85 1009.8
20260508053622 1 326 3.2 3.2 0.00 0.00 0.00 85 1009.8
20260508053122 1 323 3.2 3.2 0.00 0.00 0.00 84 1009.8
20260508052623 1 335 4.8 4.8 0.00 0.00 0.00 85 1009.8
20260508052122 1 326 3.2 3.2 0.00 0.00 0.00 85 1009.8
20260508051621 1 326 3.2 3.2 0.00 0.00 0.00 86 1010.0
20260508051120 1 327 3.2 3.2 0.00 0.00 0.00 86 1010.1
20260508050727 1 324 3.2 3.2 0.00 0.00 0.00 86 1010.3
20260508050123 1 327 3.2 3.2 0.00 0.00 0.00 86 1010.3
20260508045619 1 322 3.2 3.2 0.00 0.00 0.00 86 1010.5
20260508045120 1 328 3.2 3.2 0.00 0.00 0.00 85 1010.1
20260508044619 1 324 3.2 3.2 0.00 0.00 0.00 84 1010.5
20260508044119 1 331 1.6 3.2 0.00 0.00 0.00 84 1010.5
20260508043618 1 324 3.2 3.2 0.00 0.00 0.00 84 1010.5
20260508043117 1 326 1.6 1.6 0.00 0.00 0.00 84 1010.5
20260508042618 1 324 3.2 3.2 0.00 0.00 0.00 84 1010.5
20260508042117 1 324 1.6 3.2 0.00 0.00 0.00 84 1010.5
20260508041717 1 327 3.2 3.2 0.00 0.00 0.00 84 1010.5
20260508041116 1 326 3.2 3.2 0.00 0.00 0.00 83 1010.5
20260508040619 1 328 1.6 3.2 0.00 0.00 0.00 83 1010.5
20260508040147 2 327 1.6 3.2 0.00 0.00 0.00 82 1010.5
20260508035645 2 328 1.6 1.6 0.00 0.00 0.00 82 1010.5
20260508034644 2 324 3.2 3.2 0.00 0.00 0.00 82 1010.9
20260508033645 2 330 3.2 3.2 0.00 0.00 0.00 81 1010.5
20260508033143 2 331 3.2 3.2 0.00 0.00 0.00 82 1010.5
20260508032644 2 327 3.2 3.2 0.00 0.00 0.00 81 1010.7
20260508032144 2 328 3.2 3.2 0.00 0.00 0.00 81 1010.9
20260508031643 2 329 3.2 3.2 0.00 0.00 0.00 81 1010.5
20260508031142 2 324 1.6 1.6 0.00 0.00 0.00 81 1010.5
20260508030643 2 332 1.6 3.2 0.00 0.00 0.00 81 1010.5
20260508030142 2 326 1.6 1.6 0.00 0.00 0.00 80 1010.9
20260508025641 3 327 1.6 3.2 0.00 0.00 0.00 80 1010.5
20260508025141 3 332 1.6 1.6 0.00 0.00 0.00 79 1010.5
20260508024640 3 327 3.2 3.2 0.00 0.00 0.00 80 1010.9
20260508024141 3 327 3.2 3.2 0.00 0.00 0.00 78 1010.9
20260508023640 3 335 3.2 3.2 0.00 0.00 0.00 78 1010.7
20260508023140 3 326 3.2 3.2 0.00 0.00 0.00 78 1010.9
20260508022639 3 328 3.2 3.2 0.00 0.00 0.00 77 1010.9
20260508022140 3 327 3.2 3.2 0.00 0.00 0.00 78 1010.7
20260508021639 3 324 3.2 3.2 0.00 0.00 0.00 77 1010.9
20260508021139 3 324 3.2 3.2 0.00 0.00 0.00 78 1010.9
20260508020637 4 325 3.2 3.2 0.00 0.00 0.00 75 1010.9
20260508020137 4 329 3.2 3.2 0.00 0.00 0.00 75 1010.5
20260508015639 4 324 3.2 3.2 0.00 0.00 0.00 76 1010.5
20260508014636 4 334 3.2 4.8 0.00 0.00 0.00 75 1010.3
20260508014236 4 329 3.2 3.2 0.00 0.00 0.00 75 1010.5
20260508013638 4 327 3.2 3.2 0.00 0.00 0.00 76 1010.5
20260508013137 4 327 3.2 3.2 0.00 0.00 0.00 76 1010.1
20260508012235 5 325 3.2 3.2 0.00 0.00 0.00 75 1010.1
20260508011736 5 324 1.6 3.2 0.00 0.00 0.00 73 1010.0
20260508011135 5 325 1.6 1.6 0.00 0.00 0.00 72 1009.8
20260508010133 5 328 1.6 1.6 0.00 0.00 0.00 71 1009.8
20260508005634 5 328 1.6 1.6 0.00 0.00 0.00 69 1009.8
20260508005133 6 334 1.6 1.6 0.00 0.00 0.00 67 1009.8
20260508004632 6 336 1.6 1.6 0.00 0.00 0.00 69 1009.6
20260508004131 6 327 1.6 1.6 0.00 0.00 0.00 66 1009.4
20260508003633 6 328 1.6 1.6 0.00 0.00 0.00 66 1009.4
20260508003132 7 0.0 0.0 0.00 0.00 0.00 60 1009.8
20260508002633 7 0.0 0.0 0.00 0.00 0.00 61 1009.4
20260508002132 7 338 1.6 1.6 0.00 0.00 0.00 59 1009.4
20260508001631 8 332 0.0 1.6 0.00 0.00 0.00 55 1009.4
20260508001131 8 336 0.0 1.6 0.00 0.00 0.00 55 1009.1
20260508000630 8 0.0 0.0 0.00 0.00 0.00 53 1009.4
20260507235631 9 324 3.2 3.2 0.00 0.00 0.00 51 1009.1
20260507235129 9 326 1.6 3.2 0.00 0.00 0.00 50 1009.1
20260507234628 9 336 1.6 1.6 0.00 0.00 0.00 49 1009.1
20260507234128 9 282 4.8 8.0 0.00 0.00 0.00 49 1009.1
20260507233629 10 352 4.8 9.7 0.00 0.00 0.00 49 1009.1
20260507233130 10 317 4.8 8.0 0.00 0.00 0.00 47 1009.1
20260507232627 10 333 3.2 3.2 0.00 0.00 0.00 49 1009.1
20260507232227 10 335 3.2 8.0 0.00 0.00 0.00 47 1008.7
20260507231625 10 346 6.4 11.3 0.00 0.00 0.00 47 1008.9
20260507231126 10 303 4.8 9.7 0.00 0.00 0.00 47 1008.7
20260507230626 10 350 6.4 8.0 0.00 0.00 0.00 47 1008.7